When you browse on this site, cookies collect data to enhance your experience and personalize the content and advertising you see.
Visit our Privacy Policy to learn more. By continuing to use the site, you agree to this use of cookies and data.
  • In Lithuania
  • List of Countries
  • For 7 days
  • Water Temperature
  • Satellite Maps
  • Weather Map
  • Weather Widgets
  • user-avatar
    Login

    Hourly Weather Can Tho

    Today, 21 April, Sunday

    Time Temperature Precipitation Wind Pressure Humidity
    00:00 +30°C° 0 mm 2 mps 755 mmHg 76%
    01:00 +30°C° 0 mm 2 mps 755 mmHg 78%
    02:00 +29°C° 0 mm 2 mps 755 mmHg 79%
    03:00 +29°C° 0 mm 1 mps 755 mmHg 79%
    04:00 +29°C° 0 mm 1 mps 755 mmHg 79%
    05:00 +29°C° 0 mm 2 mps 755 mmHg 77%
    06:00 +30°C° 0 mm 2 mps 755 mmHg 74%
    07:00 +31°C° 0 mm 2 mps 755 mmHg 70%
    08:00 +34°C° 0 mm 2 mps 755 mmHg 62%
    09:00 +35°C° 0 mm 2 mps 755 mmHg 54%
    10:00 +37°C° 0 mm 2 mps 756 mmHg 46%
    11:00 +39°C° 0 mm 2 mps 755 mmHg 42%
    12:00 +40°C° 0 mm 3 mps 755 mmHg 37%
    13:00 +42°C° 0 mm 3 mps 754 mmHg 32%
    14:00 +42°C° 0 mm 3 mps 754 mmHg 34%
    15:00 +41°C° 0 mm 4 mps 753 mmHg 36%
    16:00 +41°C° 0 mm 5 mps 753 mmHg 37%
    17:00 +39°C° 0 mm 5 mps 753 mmHg 44%
    18:00 +36°C° 0 mm 4 mps 753 mmHg 51%
    19:00 +34°C° 0 mm 4 mps 753 mmHg 57%
    20:00 +33°C° 0 mm 4 mps 754 mmHg 60%
    21:00 +33°C° 0 mm 3 mps 754 mmHg 63%
    22:00 +31°C° 0 mm 2 mps 755 mmHg 66%
    23:00 +31°C° 0 mm 2 mps 755 mmHg 68%

    Tomorrow, 22 April, Monday

    Time Temperature Precipitation Wind Pressure Humidity
    00:00 +30°C° 0 mm 2 mps 755 mmHg 71%
    01:00 +30°C° 0 mm 1 mps 754 mmHg 73%
    02:00 +29°C° 0 mm 1 mps 754 mmHg 75%
    03:00 +29°C° 0 mm 1 mps 754 mmHg 76%
    04:00 +29°C° 0 mm 1 mps 754 mmHg 78%
    05:00 +29°C° 0 mm 1 mps 754 mmHg 76%
    06:00 +30°C° 0 mm 1 mps 755 mmHg 74%
    07:00 +31°C° 0 mm 1 mps 755 mmHg 72%
    08:00 +32°C° 0 mm 2 mps 755 mmHg 63%
    09:00 +35°C° 0 mm 2 mps 756 mmHg 53%
    10:00 +37°C° 0 mm 3 mps 756 mmHg 44%
    11:00 +39°C° 0 mm 3 mps 756 mmHg 39%
    12:00 +40°C° 0 mm 3 mps 755 mmHg 35%
    13:00 +42°C° 0 mm 4 mps 755 mmHg 30%
    14:00 +42°C° 0 mm 4 mps 754 mmHg 31%
    15:00 +42°C° 0 mm 4 mps 754 mmHg 32%
    16:00 +41°C° 0 mm 5 mps 753 mmHg 32%
    17:00 +39°C° 0 mm 5 mps 754 mmHg 39%
    18:00 +36°C° 0 mm 4 mps 754 mmHg 47%
    19:00 +34°C° 0 mm 4 mps 754 mmHg 54%
    20:00 +34°C° 0 mm 4 mps 755 mmHg 58%
    21:00 +33°C° 0 mm 3 mps 755 mmHg 63%
    22:00 +31°C° 0 mm 3 mps 756 mmHg 68%
    23:00 +31°C° 0 mm 2 mps 756 mmHg 70%

    Day after tomorrow, 23 April, Tuesday

    Time Temperature Precipitation Wind Pressure Humidity
    00:00 +31°C° 0 mm 2 mps 756 mmHg 72%
    01:00 +30°C° 0 mm 1 mps 755 mmHg 75%
    02:00 +30°C° 0 mm 1 mps 755 mmHg 76%
    03:00 +30°C° 0 mm 1 mps 755 mmHg 78%
    04:00 +28°C° 0 mm 0 mps 755 mmHg 79%
    05:00 +28°C° 0 mm 0 mps 755 mmHg 77%
    06:00 +29°C° 0 mm 0 mps 756 mmHg 76%
    07:00 +29°C° 0 mm 0 mps 756 mmHg 74%
    08:00 +33°C° 0 mm 1 mps 756 mmHg 65%
    09:00 +36°C° 0 mm 2 mps 757 mmHg 57%
    10:00 +38°C° 0 mm 3 mps 757 mmHg 49%
    11:00 +39°C° 0 mm 3 mps 756 mmHg 44%
    12:00 +40°C° 0 mm 3 mps 756 mmHg 38%
    13:00 +42°C° 0 mm 3 mps 755 mmHg 33%
    14:00 +42°C° 0 mm 3 mps 754 mmHg 33%
    15:00 +42°C° 0 mm 3 mps 754 mmHg 34%
    16:00 +42°C° 0 mm 3 mps 753 mmHg 34%
    17:00 +40°C° 0 mm 4 mps 754 mmHg 40%
    18:00 +37°C° 0 mm 4 mps 754 mmHg 46%
    19:00 +35°C° 0 mm 5 mps 755 mmHg 51%
    20:00 +34°C° 0.1 mm 4 mps 755 mmHg 59%
    21:00 +34°C° 0.1 mm 4 mps 756 mmHg 66%
    22:00 +33°C° 0.1 mm 3 mps 756 mmHg 73%
    23:00 +31°C° 0.3 mm 3 mps 756 mmHg 75%

    24 April, Wednesday

    Time Temperature Precipitation Wind Pressure Humidity
    00:00 +31°C° 0.3 mm 3 mps 756 mmHg 77%
    01:00 +31°C° 0.3 mm 3 mps 756 mmHg 79%
    02:00 +30°C° 0 mm 2 mps 756 mmHg 80%
    03:00 +30°C° 0 mm 2 mps 755 mmHg 81%
    04:00 +30°C° 0 mm 1 mps 755 mmHg 82%
    05:00 +30°C° 0 mm 2 mps 756 mmHg 79%
    06:00 +31°C° 0 mm 2 mps 756 mmHg 76%
    07:00 +31°C° 0 mm 3 mps 757 mmHg 73%
    08:00 +34°C° 0 mm 3 mps 757 mmHg 63%
    09:00 +36°C° 0 mm 3 mps 757 mmHg 52%
    10:00 +38°C° 0 mm 3 mps 757 mmHg 42%
    11:00 +41°C° 0 mm 4 mps 757 mmHg 37%
    12:00 +42°C° 0 mm 4 mps 756 mmHg 33%
    13:00 +43°C° 0 mm 4 mps 755 mmHg 28%
    14:00 +42°C° 0 mm 5 mps 755 mmHg 30%
    15:00 +42°C° 0 mm 5 mps 754 mmHg 31%
    16:00 +41°C° 0 mm 5 mps 753 mmHg 33%
    17:00 +39°C° 0 mm 5 mps 754 mmHg 41%
    18:00 +36°C° 0 mm 5 mps 754 mmHg 49%
    19:00 +34°C° 0 mm 4 mps 755 mmHg 56%
    20:00 +34°C° 0 mm 4 mps 755 mmHg 61%
    21:00 +33°C° 0 mm 3 mps 756 mmHg 65%
    22:00 +32°C° 0 mm 2 mps 756 mmHg 70%
    23:00 +32°C° 0 mm 2 mps 756 mmHg 70%

    25 April, Thursday

    Time Temperature Precipitation Wind Pressure Humidity
    00:00 +31°C° 0 mm 2 mps 756 mmHg 71%
    01:00 +31°C° 0 mm 2 mps 755 mmHg 72%
    02:00 +31°C° 0 mm 1 mps 755 mmHg 74%
    03:00 +31°C° 0 mm 1 mps 755 mmHg 75%
    04:00 +30°C° 0 mm 1 mps 755 mmHg 77%
    05:00 +31°C° 0 mm 1 mps 755 mmHg 75%
    06:00 +31°C° 0 mm 1 mps 756 mmHg 73%
    07:00 +32°C° 0 mm 2 mps 756 mmHg 71%
    08:00 +34°C° 0 mm 2 mps 757 mmHg 63%
    09:00 +36°C° 0 mm 2 mps 757 mmHg 55%
    10:00 +38°C° 0 mm 3 mps 757 mmHg 48%
    11:00 +38°C° 0 mm 3 mps 756 mmHg 46%
    12:00 +38°C° 0 mm 3 mps 756 mmHg 44%
    13:00 +39°C° 0 mm 3 mps 755 mmHg 42%
    14:00 +38°C° 0 mm 3 mps 754 mmHg 43%
    15:00 +38°C° 0 mm 2 mps 754 mmHg 44%
    16:00 +38°C° 0 mm 2 mps 753 mmHg 45%
    17:00 +37°C° 0 mm 3 mps 754 mmHg 49%
    18:00 +36°C° 0 mm 3 mps 754 mmHg 52%
    19:00 +35°C° 0 mm 3 mps 755 mmHg 55%
    20:00 +34°C° 0 mm 3 mps 755 mmHg 60%
    21:00 +33°C° 0 mm 3 mps 756 mmHg 65%
    22:00 +32°C° 0 mm 2 mps 756 mmHg 70%
    23:00 +31°C° 0.1 mm 2 mps 756 mmHg 73%

    26 April, Friday

    Time Temperature Precipitation Wind Pressure Humidity
    00:00 +31°C° 0.1 mm 2 mps 755 mmHg 75%
    01:00 +30°C° 0.1 mm 1 mps 755 mmHg 77%
    02:00 +30°C° 0.1 mm 1 mps 755 mmHg 79%
    03:00 +30°C° 0.1 mm 1 mps 755 mmHg 80%
    04:00 +30°C° 0.1 mm 1 mps 755 mmHg 81%
    05:00 +30°C° 0 mm 1 mps 755 mmHg 78%
    06:00 +31°C° 0 mm 1 mps 756 mmHg 75%
    07:00 +31°C° 0 mm 1 mps 756 mmHg 72%
    08:00 +34°C° 0 mm 2 mps 756 mmHg 64%
    09:00 +36°C° 0 mm 2 mps 757 mmHg 56%
    10:00 +38°C° 0 mm 2 mps 757 mmHg 48%
    11:00 +38°C° 0 mm 2 mps 756 mmHg 47%
    12:00 +38°C° 0 mm 2 mps 755 mmHg 46%
    13:00 +38°C° 0 mm 2 mps 755 mmHg 45%
    14:00 +39°C° 0 mm 2 mps 754 mmHg 44%
    15:00 +39°C° 0 mm 2 mps 754 mmHg 43%
    16:00 +39°C° 0 mm 2 mps 754 mmHg 42%
    17:00 +38°C° 0 mm 2 mps 754 mmHg 45%
    18:00 +36°C° 0 mm 3 mps 755 mmHg 48%
    19:00 +35°C° 0 mm 4 mps 755 mmHg 51%
    20:00 +34°C° 0 mm 3 mps 756 mmHg 54%
    21:00 +34°C° 0 mm 3 mps 756 mmHg 56%
    22:00 +33°C° 0 mm 3 mps 757 mmHg 59%
    23:00 +31°C° 0 mm 2 mps 756 mmHg 61%
    Show more